| time (UTC) | temp F | wind direction | speed knots | gust knots | rain 1hr in | rain 24hr in | rain mn in | humidity % | barometer mb |
| 20260507205537 | 59 | 217 | 0.9 | 3.5 | 0.00 | 0.08 | 0.08 | 86 | 1015.4 |
| 20260507204535 | 59 | 215 | 1.7 | 3.5 | 0.00 | 0.08 | 0.08 | 85 | 1015.2 |
| 20260507203536 | 59 | 208 | 0.9 | 3.5 | 0.00 | 0.08 | 0.08 | 85 | 1015.2 |
| 20260507202535 | 60 | 224 | 1.7 | 4.3 | 0.00 | 0.08 | 0.08 | 85 | 1015.2 |
| 20260507201535 | 60 | 213 | 1.7 | 3.5 | 0.00 | 0.09 | 0.08 | 84 | 1015.1 |
| 20260507200534 | 60 | 211 | 1.7 | 4.3 | 0.00 | 0.10 | 0.08 | 85 | 1015.0 |
| 20260507195555 | 60 | 214 | 1.7 | 4.3 | 0.00 | 0.10 | 0.08 | 84 | 1015.0 |
| 20260507194552 | 60 | 210 | 2.6 | 4.3 | 0.00 | 0.10 | 0.08 | 83 | 1014.9 |
| 20260507193552 | 60 | 225 | 0.9 | 3.5 | 0.00 | 0.10 | 0.08 | 82 | 1014.9 |
| 20260507192531 | 60 | 215 | 3.5 | 6.1 | 0.00 | 0.10 | 0.08 | 82 | 1014.9 |
| 20260507191532 | 60 | 218 | 2.6 | 4.3 | 0.00 | 0.10 | 0.08 | 82 | 1014.9 |
| 20260507190530 | 60 | 219 | 1.7 | 3.5 | 0.00 | 0.10 | 0.08 | 82 | 1014.9 |
| 20260507185531 | 60 | 223 | 1.7 | 4.3 | 0.00 | 0.10 | 0.08 | 81 | 1014.7 |
| 20260507184529 | 60 | 224 | 2.6 | 6.1 | 0.00 | 0.10 | 0.08 | 81 | 1014.8 |
| 20260507183530 | 60 | 222 | 0.9 | 2.6 | 0.00 | 0.10 | 0.08 | 83 | 1014.6 |
| 20260507182528 | 60 | 213 | 0.9 | 3.5 | 0.00 | 0.10 | 0.08 | 83 | 1014.5 |
| 20260507181548 | 60 | 244 | 0.9 | 0.9 | 0.00 | 0.10 | 0.08 | 82 | 1014.3 |
| 20260507180558 | 60 | 248 | 0.0 | 0.9 | 0.01 | 0.10 | 0.08 | 81 | 1014.1 |
| 20260507175527 | 60 | 255 | 0.9 | 2.6 | 0.01 | 0.10 | 0.08 | 80 | 1014.0 |
| 20260507174556 | 61 | 225 | 0.0 | 2.6 | 0.02 | 0.10 | 0.08 | 80 | 1013.7 |
| 20260507173526 | 61 | 222 | 0.0 | 2.6 | 0.02 | 0.10 | 0.08 | 81 | 1013.7 |
| 20260507172525 | 61 | 250 | 0.9 | 2.6 | 0.03 | 0.10 | 0.08 | 83 | 1013.7 |
| 20260507171556 | 62 | 318 | 0.9 | 2.6 | 0.03 | 0.10 | 0.08 | 85 | 1013.8 |
| 20260507170524 | 62 | 199 | 0.0 | 2.6 | 0.02 | 0.09 | 0.07 | 84 | 1013.7 |
| 20260507165525 | 62 | 262 | 0.0 | 0.9 | 0.02 | 0.09 | 0.07 | 83 | 1013.7 |
| 20260507164524 | 62 | 220 | 0.9 | 2.6 | 0.01 | 0.08 | 0.06 | 81 | 1013.8 |
| 20260507163523 | 63 | 203 | 2.6 | 4.3 | 0.01 | 0.08 | 0.06 | 80 | 1013.7 |
| 20260507162523 | 63 | 205 | 4.3 | 7.0 | 0.00 | 0.07 | 0.05 | 79 | 1013.7 |
| 20260507161553 | 63 | 207 | 3.5 | 6.1 | 0.00 | 0.07 | 0.05 | 78 | 1013.8 |
| 20260507160552 | 63 | 213 | 2.6 | 4.3 | 0.00 | 0.07 | 0.05 | 78 | 1013.7 |
| 20260507155543 | 63 | 214 | 1.7 | 6.1 | 0.00 | 0.07 | 0.05 | 77 | 1013.6 |
| 20260507154521 | 63 | 210 | 2.6 | 6.1 | 0.00 | 0.07 | 0.05 | 77 | 1013.6 |
| 20260507153541 | 63 | 227 | 1.7 | 3.5 | 0.01 | 0.07 | 0.05 | 75 | 1013.7 |
| 20260507152551 | 63 | 216 | 1.7 | 6.1 | 0.01 | 0.07 | 0.05 | 76 | 1013.7 |
| 20260507151520 | 63 | 207 | 1.7 | 4.3 | 0.01 | 0.07 | 0.05 | 77 | 1013.8 |
| 20260507150610 | 63 | 226 | 2.6 | 6.1 | 0.01 | 0.07 | 0.05 | 76 | 1013.7 |
| 20260507145540 | 63 | 227 | 3.5 | 9.6 | 0.01 | 0.07 | 0.05 | 77 | 1013.9 |
| 20260507144519 | 63 | 224 | 2.6 | 4.3 | 0.01 | 0.07 | 0.05 | 76 | 1013.7 |
| 20260507143548 | 64 | 243 | 2.6 | 3.5 | 0.00 | 0.06 | 0.04 | 74 | 1013.7 |
| 20260507142547 | 64 | 228 | 2.6 | 6.1 | 0.00 | 0.06 | 0.04 | 72 | 1013.7 |
| 20260507141547 | 64 | 227 | 3.5 | 8.7 | 0.00 | 0.06 | 0.04 | 71 | 1013.7 |
| 20260507140546 | 65 | 215 | 5.2 | 9.6 | 0.00 | 0.06 | 0.04 | 69 | 1013.8 |
| 20260507135547 | 67 | 230 | 6.1 | 12.2 | 0.00 | 0.06 | 0.04 | 60 | 1013.7 |
| 20260507134536 | 68 | 223 | 5.2 | 12.2 | 0.00 | 0.06 | 0.04 | 58 | 1013.6 |
| 20260507133547 | 69 | 211 | 4.3 | 8.7 | 0.00 | 0.06 | 0.04 | 57 | 1013.4 |
| 20260507132545 | 68 | 232 | 6.1 | 15.6 | 0.00 | 0.06 | 0.04 | 57 | 1013.4 |
| 20260507131545 | 69 | 228 | 6.1 | 15.6 | 0.00 | 0.06 | 0.04 | 56 | 1013.4 |
| 20260507130544 | 69 | 217 | 5.2 | 12.2 | 0.00 | 0.06 | 0.04 | 55 | 1013.4 |
| 20260507125544 | 69 | 211 | 4.3 | 12.2 | 0.00 | 0.06 | 0.04 | 55 | 1013.3 |
| 20260507124543 | 69 | 221 | 0.9 | 3.5 | 0.00 | 0.06 | 0.04 | 55 | 1013.3 |
| 20260507123544 | 69 | 244 | 0.9 | 6.1 | 0.00 | 0.06 | 0.04 | 55 | 1013.3 |
| 20260507122543 | 69 | 253 | 2.6 | 7.0 | 0.00 | 0.06 | 0.04 | 55 | 1013.3 |
| 20260507121604 | 69 | 253 | 4.3 | 8.7 | 0.00 | 0.06 | 0.04 | 55 | 1013.3 |
| 20260507120541 | 70 | 264 | 3.5 | 8.7 | 0.00 | 0.06 | 0.04 | 54 | 1013.3 |
| 20260507115542 | 70 | 260 | 2.6 | 6.1 | 0.00 | 0.06 | 0.04 | 54 | 1013.3 |
| 20260507114540 | 70 | 290 | 3.5 | 7.0 | 0.00 | 0.06 | 0.04 | 54 | 1013.3 |
| 20260507113540 | 71 | 251 | 4.3 | 10.4 | 0.00 | 0.06 | 0.04 | 52 | 1013.3 |
| 20260507112600 | 71 | 219 | 3.5 | 6.1 | 0.00 | 0.06 | 0.04 | 52 | 1013.2 |
| 20260507111541 | 71 | 209 | 6.1 | 9.6 | 0.00 | 0.06 | 0.04 | 52 | 1013.3 |
| 20260507110539 | 71 | 202 | 3.5 | 7.0 | 0.00 | 0.06 | 0.04 | 51 | 1013.3 |
| 20260507105540 | 71 | 221 | 5.2 | 10.4 | 0.00 | 0.06 | 0.04 | 52 | 1013.3 |
| 20260507104537 | 71 | 230 | 7.0 | 15.6 | 0.00 | 0.06 | 0.04 | 52 | 1013.3 |
| 20260507103538 | 71 | 240 | 2.6 | 8.7 | 0.00 | 0.06 | 0.04 | 54 | 1013.4 |
| 20260507102537 | 70 | 232 | 4.3 | 8.7 | 0.00 | 0.06 | 0.04 | 55 | 1013.4 |
| 20260507101558 | 71 | 223 | 2.6 | 7.0 | 0.00 | 0.06 | 0.04 | 55 | 1013.5 |
| 20260507100556 | 70 | 218 | 4.3 | 12.2 | 0.00 | 0.06 | 0.04 | 56 | 1013.5 |
| 20260507095536 | 71 | 186 | 2.6 | 10.4 | 0.00 | 0.06 | 0.04 | 56 | 1013.4 |
| 20260507094535 | 69 | 195 | 3.5 | 7.0 | 0.00 | 0.06 | 0.04 | 58 | 1013.5 |
| 20260507093536 | 70 | 209 | 2.6 | 7.0 | 0.00 | 0.06 | 0.04 | 58 | 1013.5 |
| 20260507092534 | 69 | 249 | 1.7 | 4.3 | 0.00 | 0.06 | 0.04 | 58 | 1013.4 |
| 20260507091534 | 69 | 228 | 2.6 | 4.3 | 0.00 | 0.06 | 0.04 | 59 | 1013.4 |
| 20260507090534 | 67 | 245 | 3.5 | 8.7 | 0.00 | 0.06 | 0.04 | 62 | 1013.4 |
| 20260507085554 | 67 | 252 | 4.3 | 8.7 | 0.00 | 0.06 | 0.04 | 63 | 1013.4 |
| 20260507084533 | 66 | 243 | 3.5 | 9.6 | 0.00 | 0.06 | 0.04 | 64 | 1013.3 |
| 20260507083533 | 66 | 220 | 4.3 | 9.6 | 0.00 | 0.06 | 0.04 | 66 | 1013.2 |
| 20260507082532 | 66 | 240 | 4.3 | 8.7 | 0.00 | 0.06 | 0.04 | 66 | 1013.2 |
| 20260507081532 | 65 | 210 | 4.3 | 9.6 | 0.00 | 0.06 | 0.04 | 66 | 1013.1 |
| 20260507080551 | 65 | 242 | 2.6 | 7.0 | 0.00 | 0.06 | 0.04 | 67 | 1013.0 |
| 20260507075530 | 65 | 215 | 4.3 | 8.7 | 0.00 | 0.06 | 0.04 | 67 | 1013.0 |
| 20260507074550 | 65 | 216 | 4.3 | 8.7 | 0.00 | 0.06 | 0.04 | 69 | 1013.0 |
| 20260507073530 | 64 | 214 | 5.2 | 9.6 | 0.00 | 0.06 | 0.04 | 69 | 1012.8 |
| 20260507072529 | 65 | 209 | 3.5 | 8.7 | 0.00 | 0.06 | 0.04 | 68 | 1012.7 |
| 20260507071530 | 64 | 209 | 4.3 | 9.6 | 0.00 | 0.06 | 0.04 | 70 | 1012.7 |
| 20260507070528 | 64 | 223 | 3.5 | 8.7 | 0.00 | 0.06 | 0.04 | 71 | 1012.7 |
| 20260507065528 | 63 | 219 | 5.2 | 9.6 | 0.00 | 0.06 | 0.04 | 73 | 1012.7 |
| 20260507064527 | 62 | 221 | 2.6 | 7.0 | 0.00 | 0.06 | 0.04 | 76 | 1012.7 |
| 20260507063527 | 62 | 216 | 5.2 | 8.7 | 0.00 | 0.06 | 0.04 | 75 | 1012.7 |
| 20260507062526 | 61 | 210 | 3.5 | 6.1 | 0.00 | 0.06 | 0.04 | 77 | 1012.7 |
| 20260507061526 | 61 | 235 | 1.7 | 3.5 | 0.00 | 0.06 | 0.04 | 78 | 1012.7 |
| 20260507060526 | 61 | 208 | 2.6 | 6.1 | 0.00 | 0.06 | 0.04 | 79 | 1012.6 |
| 20260507055526 | 60 | 224 | 2.6 | 6.1 | 0.00 | 0.06 | 0.04 | 80 | 1012.5 |
| 20260507054545 | 60 | 211 | 2.6 | 4.3 | 0.00 | 0.06 | 0.04 | 80 | 1012.4 |
| 20260507053525 | 60 | 216 | 2.6 | 6.1 | 0.00 | 0.06 | 0.04 | 81 | 1012.4 |
| 20260507052525 | 60 | 211 | 2.6 | 7.0 | 0.00 | 0.06 | 0.04 | 81 | 1012.2 |
| 20260507051554 | 60 | 213 | 2.6 | 6.1 | 0.00 | 0.06 | 0.04 | 81 | 1012.0 |
| 20260507050523 | 60 | 210 | 2.6 | 6.1 | 0.00 | 0.06 | 0.04 | 81 | 1011.9 |
| 20260507045523 | 60 | 210 | 0.9 | 3.5 | 0.00 | 0.06 | 0.04 | 82 | 1011.8 |
| 20260507044522 | 59 | 158 | 0.0 | 3.5 | 0.00 | 0.06 | 0.04 | 83 | 1011.7 |
| 20260507043652 | 59 | 195 | 0.0 | 3.5 | 0.00 | 0.06 | 0.04 | 83 | 1011.5 |
| 20260507042550 | 59 | 0.0 | 0.0 | 0.00 | 0.06 | 0.04 | 84 | 1011.3 | |
| 20260507041620 | 59 | 223 | 0.9 | 3.5 | 0.00 | 0.06 | 0.04 | 84 | 1011.2 |
| 20260507040519 | 59 | 198 | 3.5 | 6.1 | 0.00 | 0.06 | 0.04 | 84 | 1011.2 |
| 20260507035519 | 59 | 211 | 2.6 | 6.1 | 0.00 | 0.06 | 0.04 | 84 | 1011.2 |
| 20260507034518 | 59 | 213 | 4.3 | 8.7 | 0.00 | 0.06 | 0.04 | 83 | 1011.1 |
| 20260507033548 | 59 | 215 | 4.3 | 8.7 | 0.00 | 0.06 | 0.04 | 83 | 1010.9 |
| 20260507032518 | 60 | 226 | 4.3 | 8.7 | 0.00 | 0.06 | 0.04 | 81 | 1010.9 |
| 20260507031547 | 60 | 220 | 3.5 | 9.6 | 0.00 | 0.06 | 0.04 | 81 | 1010.9 |
| 20260507030547 | 60 | 216 | 4.3 | 9.6 | 0.00 | 0.06 | 0.04 | 81 | 1010.9 |
| 20260507025515 | 60 | 235 | 1.7 | 4.3 | 0.00 | 0.06 | 0.04 | 81 | 1011.0 |
| 20260507024545 | 60 | 256 | 2.6 | 8.7 | 0.00 | 0.06 | 0.04 | 81 | 1011.0 |
| 20260507023545 | 60 | 225 | 2.6 | 7.0 | 0.00 | 0.06 | 0.04 | 81 | 1010.9 |
| 20260507022544 | 60 | 232 | 2.6 | 4.3 | 0.00 | 0.06 | 0.04 | 82 | 1011.0 |
| 20260507021544 | 60 | 255 | 1.7 | 3.5 | 0.00 | 0.06 | 0.04 | 82 | 1010.8 |
| 20260507020543 | 60 | 248 | 1.7 | 4.3 | 0.00 | 0.06 | 0.04 | 82 | 1010.8 |
| 20260507015543 | 61 | 238 | 1.7 | 4.3 | 0.00 | 0.06 | 0.04 | 82 | 1010.8 |
| 20260507014543 | 60 | 256 | 1.7 | 4.3 | 0.00 | 0.06 | 0.04 | 82 | 1010.9 |
| 20260507013543 | 61 | 247 | 1.7 | 6.1 | 0.00 | 0.06 | 0.04 | 82 | 1011.0 |
| 20260507012541 | 61 | 233 | 2.6 | 6.1 | 0.00 | 0.06 | 0.04 | 83 | 1011.0 |
| 20260507011541 | 60 | 245 | 1.7 | 3.5 | 0.00 | 0.06 | 0.04 | 85 | 1011.0 |
| 20260507010600 | 60 | 252 | 0.9 | 2.6 | 0.00 | 0.06 | 0.04 | 86 | 1011.0 |
| 20260507005540 | 60 | 225 | 0.0 | 2.6 | 0.00 | 0.06 | 0.04 | 85 | 1011.0 |
| 20260507004540 | 61 | 213 | 0.9 | 3.5 | 0.00 | 0.06 | 0.04 | 85 | 1011.0 |
| 20260507003540 | 61 | 215 | 0.9 | 3.5 | 0.00 | 0.06 | 0.04 | 85 | 1011.0 |
| 20260507002538 | 61 | 221 | 1.7 | 6.1 | 0.00 | 0.06 | 0.04 | 86 | 1011.1 |
| 20260507001608 | 61 | 205 | 0.0 | 2.6 | 0.00 | 0.06 | 0.04 | 86 | 1011.2 |
| 20260507000537 | 61 | 215 | 0.0 | 2.6 | 0.03 | 0.06 | 0.04 | 86 | 1011.3 |
| 20260506235537 | 61 | 265 | 0.9 | 3.5 | 0.03 | 0.06 | 0.04 | 86 | 1011.5 |
| 20260506234627 | 60 | 258 | 1.7 | 3.5 | 0.03 | 0.06 | 0.04 | 87 | 1011.4 |
| 20260506233536 | 61 | 243 | 0.9 | 3.5 | 0.04 | 0.06 | 0.04 | 87 | 1011.5 |
| 20260506232556 | 61 | 256 | 1.7 | 4.3 | 0.04 | 0.06 | 0.04 | 86 | 1011.5 |
| 20260506231605 | 61 | 246 | 6.1 | 9.6 | 0.04 | 0.06 | 0.04 | 85 | 1011.7 |
| 20260506230534 | 62 | 221 | 6.1 | 13.9 | 0.01 | 0.03 | 0.01 | 82 | 1011.9 |
| 20260506225534 | 62 | 217 | 5.2 | 12.2 | 0.01 | 0.03 | 0.01 | 82 | 1011.9 |
| 20260506224533 | 62 | 215 | 5.2 | 10.4 | 0.01 | 0.03 | 0.01 | 82 | 1011.7 |
| 20260506223533 | 63 | 207 | 5.2 | 10.4 | 0.00 | 0.02 | 0.00 | 80 | 1011.6 |
| 20260506222552 | 63 | 221 | 5.2 | 9.6 | 0.00 | 0.02 | 0.00 | 79 | 1011.1 |
| 20260506221613 | 63 | 232 | 2.6 | 6.1 | 0.00 | 0.02 | 0.00 | 80 | 1010.8 |
| 20260506220532 | 63 | 237 | 2.6 | 7.0 | 0.00 | 0.02 | 0.00 | 80 | 1010.7 |
| 20260506215531 | 63 | 226 | 2.6 | 6.1 | 0.00 | 0.02 | 0.02 | 79 | 1010.8 |
| 20260506214530 | 63 | 231 | 1.7 | 6.1 | 0.00 | 0.02 | 0.02 | 80 | 1010.8 |
| 20260506213530 | 64 | 218 | 2.6 | 8.7 | 0.00 | 0.02 | 0.02 | 80 | 1010.9 |
| 20260506212550 | 63 | 228 | 3.5 | 6.1 | 0.00 | 0.02 | 0.02 | 81 | 1010.8 |
| 20260506211529 | 63 | 221 | 2.6 | 6.1 | 0.01 | 0.02 | 0.02 | 83 | 1010.8 |